contact:dominique.lefevre@mio.osupytheas.fr, maurice.libes@osupytheas.fr, didier.mallarino@osupytheas.fr
Project:EMSO http://www.emso-fr.org/EMSO-France
Depth: 2436.0 m
Title:EMSO Ligure Ouest : Data MII capteur AQUADOPP
Date,Latitude,Longitude,X_East,Y_North,Z_Up,Amplitude_X,Amplitude_Y,Amplitude_Z,Batterie,SoundSpeed,Heading,Pitch,Roll,Pressure,TIS,Speed,Direction
, degrees North, degrees East, m.s-1, m.s-1,m.s-1, 1, 1, 1, Volt, m.s-1, degree, degree, degree, dbar, degree_C, m.s-1, degree
2023-07-19T00:04:03,42.805,6.029,-0.017,-0.002,-0.045,102.0,102.0,102.0,13.4,1505.2,326.5,-0.8,1.8,2471.472,13.29,0.017,263.3
2023-07-19T00:07:03,42.805,6.029,-0.009,0.0,-0.022,104.0,103.0,100.0,13.4,1505.2,342.2,-0.8,1.9,2471.495,13.29,0.009,270.0
2023-07-19T00:10:03,42.805,6.029,-0.016,-0.008,-0.025,100.0,102.0,102.0,13.4,1505.2,324.2,-0.8,1.8,2471.495,13.29,0.017,243.4
2023-07-19T00:13:03,42.805,6.029,-0.041,0.006,-0.017,102.0,103.0,99.0,13.4,1505.2,328.2,-0.7,1.8,2471.48,13.29,0.041,278.3
2023-07-19T00:16:03,42.805,6.029,-0.009,0.006,-0.024,103.0,102.0,101.0,13.4,1505.2,321.9,-0.7,1.8,2471.486,13.29,0.01,303.7
2023-07-19T00:19:03,42.805,6.029,-0.02,0.01,-0.035,101.0,101.0,102.0,13.4,1505.2,348.9,-0.8,1.8,2471.473,13.29,0.022,296.6
2023-07-19T00:22:03,42.805,6.029,-0.029,0.017,-0.016,103.0,102.0,102.0,13.4,1505.2,324.2,-0.8,1.8,2471.442,13.29,0.033,300.4
2023-07-19T00:25:03,42.805,6.029,-0.022,0.016,-0.025,102.0,102.0,101.0,13.3,1505.2,344.5,-0.8,1.8,2471.444,13.29,0.027,306.0
2023-07-19T00:28:03,42.805,6.029,-0.022,0.01,-0.038,103.0,102.0,102.0,13.4,1505.2,349.9,-0.8,1.8,2471.433,13.29,0.024,294.4
2023-07-19T00:31:03,42.805,6.029,-0.02,0.019,-0.024,103.0,102.0,100.0,13.4,1505.2,339.8,-0.8,1.8,2471.419,13.29,0.027,313.5
2023-07-19T00:34:03,42.805,6.029,-0.007,0.019,-0.031,103.0,101.0,102.0,13.3,1505.2,344.0,-0.8,1.8,2471.423,13.29,0.02,339.8
2023-07-19T00:37:03,42.805,6.029,-0.005,0.014,-0.007,102.0,102.0,102.0,13.3,1505.2,328.3,-0.8,1.8,2471.45,13.29,0.014,340.4
2023-07-19T00:40:03,42.805,6.029,-0.025,0.019,-0.027,104.0,100.0,102.0,13.4,1505.2,326.8,-0.7,1.8,2471.428,13.29,0.031,307.2
2023-07-19T00:43:03,42.805,6.029,-0.011,0.025,0.0,102.0,102.0,101.0,13.4,1505.2,338.4,-0.8,1.8,2471.421,13.29,0.027,336.3
2023-07-19T00:46:03,42.805,6.029,-0.017,0.009,-0.034,102.0,101.0,102.0,13.4,1505.2,324.9,-0.8,1.8,2471.442,13.29,0.019,297.9
2023-07-19T00:49:03,42.805,6.029,-0.004,0.004,-0.008,103.0,102.0,101.0,13.4,1505.2,341.9,-0.8,1.8,2471.44,13.29,0.005,315.0
2023-07-19T00:52:03,42.805,6.029,-0.013,0.013,-0.022,102.0,103.0,100.0,13.4,1505.2,332.1,-0.8,1.8,2471.437,13.29,0.018,315.0
2023-07-19T00:55:03,42.805,6.029,-0.027,0.009,-0.043,102.0,102.0,101.0,13.3,1505.2,342.7,-0.8,1.8,2471.416,13.29,0.028,288.4
2023-07-19T00:58:03,42.805,6.029,-0.011,0.021,-0.024,102.0,102.0,102.0,13.3,1505.2,352.8,-0.7,1.8,2471.388,13.29,0.023,332.4
2023-07-19T01:01:03,42.805,6.029,-0.003,0.012,-0.051,102.0,102.0,101.0,13.4,1505.2,353.2,-0.8,1.8,2471.388,13.29,0.012,346.0
2023-07-19T01:04:03,42.805,6.029,0.005,0.029,-0.02,104.0,102.0,103.0,13.3,1505.2,344.4,-0.8,1.8,2471.401,13.29,0.029,9.8
2023-07-19T01:07:03,42.805,6.029,-0.016,0.007,-0.048,102.0,102.0,101.0,13.4,1505.2,336.6,-0.7,1.8,2471.4,13.29,0.017,293.6
2023-07-19T01:10:03,42.805,6.029,-0.025,-0.011,-0.063,102.0,102.0,101.0,13.4,1505.2,328.1,-0.7,1.8,2471.384,13.29,0.027,246.3
2023-07-19T01:13:03,42.805,6.029,-0.021,0.015,-0.039,102.0,102.0,101.0,13.4,1505.2,333.4,-0.8,1.8,2471.372,13.29,0.025,305.5
2023-07-19T01:16:03,42.805,6.029,-0.012,0.004,-0.018,102.0,102.0,101.0,13.3,1505.2,351.8,-0.7,1.8,2471.399,13.29,0.012,288.4
2023-07-19T01:19:03,42.805,6.029,-0.03,0.025,-0.023,102.0,102.0,102.0,13.4,1505.2,339.4,-0.8,1.8,2471.392,13.29,0.039,309.8
2023-07-19T01:22:03,42.805,6.029,-0.024,0.011,-0.033,101.0,103.0,100.0,13.4,1505.2,339.4,-0.8,1.8,2471.394,13.29,0.026,294.6
2023-07-19T01:25:03,42.805,6.029,-0.019,0.035,-0.028,101.0,102.0,101.0,13.4,1505.2,332.5,-0.7,1.8,2471.385,13.29,0.039,331.5
2023-07-19T01:28:03,42.805,6.029,0.0,0.012,-0.062,100.0,103.0,102.0,13.4,1505.2,354.2,-0.8,1.8,2471.405,13.29,0.012,0.0
2023-07-19T01:31:03,42.805,6.029,-0.041,0.007,-0.029,102.0,101.0,101.0,13.4,1505.2,336.6,-0.8,1.8,2471.398,13.29,0.041,279.7
2023-07-19T01:34:03,42.805,6.029,-0.012,0.0,-0.035,103.0,102.0,101.0,13.3,1505.2,330.7,-0.7,1.8,2471.372,13.29,0.012,270.0
2023-07-19T01:37:03,42.805,6.029,-0.037,0.022,-0.032,101.0,102.0,101.0,13.3,1505.2,341.5,-0.8,1.8,2471.397,13.29,0.043,300.7
2023-07-19T01:40:03,42.805,6.029,-0.005,0.005,-0.033,103.0,102.0,101.0,13.4,1505.2,335.6,-0.8,1.8,2471.377,13.29,0.007,315.0
2023-07-19T01:43:03,42.805,6.029,-0.017,0.006,-0.038,102.0,102.0,102.0,13.4,1505.2,327.3,-0.8,1.8,2471.391,13.29,0.018,289.4
2023-07-19T01:46:03,42.805,6.029,-0.013,0.013,-0.003,102.0,102.0,100.0,13.4,1505.2,344.9,-0.8,1.8,2471.35,13.29,0.018,315.0
2023-07-19T01:49:03,42.805,6.029,-0.011,-0.001,-0.057,102.0,102.0,101.0,13.3,1505.2,345.2,-0.8,1.8,2471.395,13.29,0.011,264.8
2023-07-19T01:52:03,42.805,6.029,-0.009,0.004,-0.015,102.0,102.0,101.0,13.4,1505.2,333.4,-0.7,1.8,2471.354,13.29,0.009,294.0
2023-07-19T01:55:03,42.805,6.029,-0.017,0.001,-0.034,101.0,104.0,101.0,13.4,1505.2,323.3,-0.7,1.8,2471.394,13.29,0.017,273.4
2023-07-19T01:58:03,42.805,6.029,-0.032,-0.005,-0.046,103.0,101.0,102.0,13.4,1505.2,334.5,-0.8,1.8,2471.376,13.29,0.032,261.1
2023-07-19T02:04:03,42.805,6.029,-0.024,0.029,0.01,103.0,102.0,100.0,13.3,1505.2,339.7,-0.8,1.8,2471.399,13.29,0.037,320.4
2023-07-19T02:07:03,42.805,6.029,-0.006,-0.008,-0.024,102.0,101.0,101.0,13.4,1505.2,322.9,-0.8,1.8,2471.37,13.29,0.01,216.9
2023-07-19T02:10:03,42.805,6.029,-0.017,0.004,-0.057,102.0,102.0,101.0,13.4,1505.2,332.9,-0.8,1.8,2471.378,13.29,0.017,283.2
2023-07-19T02:13:03,42.805,6.029,-0.023,0.002,-0.04,104.0,102.0,100.0,13.4,1505.2,335.1,-0.7,1.8,2471.409,13.29,0.023,275.0
2023-07-19T02:16:03,42.805,6.029,-0.035,0.003,-0.053,102.0,101.0,102.0,13.3,1505.2,330.3,-0.7,1.8,2471.368,13.29,0.035,274.9
2023-07-19T02:19:03,42.805,6.029,-0.005,-0.004,0.025,102.0,103.0,101.0,13.4,1505.2,348.4,-0.8,1.8,2471.371,13.29,0.006,231.3
2023-07-19T02:22:03,42.805,6.029,-0.002,0.008,0.015,103.0,103.0,102.0,13.4,1505.2,330.5,-0.8,1.8,2471.389,13.29,0.008,346.0
2023-07-19T02:25:03,42.805,6.029,-0.032,-0.005,-0.046,102.0,102.0,101.0,13.4,1505.2,330.2,-0.7,1.8,2471.394,13.29,0.032,261.1
2023-07-19T02:28:03,42.805,6.029,0.004,-0.002,-0.052,102.0,103.0,101.0,13.3,1505.2,345.4,-0.8,1.8,2471.329,13.29,0.004,116.6
2023-07-19T02:31:03,42.805,6.029,-0.016,-0.019,-0.014,103.0,101.0,101.0,13.4,1505.2,332.3,-0.8,1.8,2471.344,13.29,0.024,220.1
2023-07-19T02:34:03,42.805,6.029,-0.02,0.017,-0.01,103.0,102.0,102.0,13.3,1505.2,331.9,-0.8,1.8,2471.345,13.29,0.026,310.4
2023-07-19T02:37:03,42.805,6.029,-0.042,0.0,-0.049,102.0,102.0,101.0,13.3,1505.2,325.5,-0.8,1.8,2471.327,13.29,0.042,270.0
2023-07-19T02:40:03,42.805,6.029,-0.035,0.025,-0.028,102.0,103.0,100.0,13.3,1505.2,328.3,-0.7,1.8,2471.328,13.29,0.043,305.5
2023-07-19T02:43:03,42.805,6.029,-0.019,0.012,-0.035,102.0,104.0,100.0,13.3,1505.2,339.3,-0.8,1.8,2471.362,13.29,0.022,302.3
2023-07-19T02:46:03,42.805,6.029,-0.015,-0.003,-0.015,102.0,102.0,101.0,13.3,1505.2,352.7,-0.8,1.8,2471.346,13.29,0.015,258.7
2023-07-19T02:49:03,42.805,6.029,-0.029,0.017,-0.054,103.0,102.0,100.0,13.4,1505.2,344.5,-0.7,1.8,2471.372,13.29,0.033,300.4
2023-07-19T02:52:03,42.805,6.029,-0.026,0.015,-0.028,103.0,103.0,101.0,13.3,1505.2,351.5,-0.7,1.8,2471.352,13.29,0.03,300.0
2023-07-19T02:55:03,42.805,6.029,-0.025,0.021,0.0,101.0,102.0,102.0,13.4,1505.2,336.6,-0.7,1.8,2471.348,13.29,0.032,310.0
2023-07-19T02:58:03,42.805,6.029,-0.033,-0.009,-0.052,102.0,103.0,102.0,13.3,1505.2,341.1,-0.7,1.8,2471.358,13.29,0.034,254.7
2023-07-19T03:04:03,42.805,6.029,-0.005,0.005,-0.017,103.0,102.0,101.0,13.4,1505.2,334.4,-0.8,1.8,2471.387,13.29,0.007,315.0
2023-07-19T03:07:03,42.805,6.029,-0.035,0.009,0.005,102.0,102.0,102.0,13.4,1505.2,325.3,-0.8,1.8,2471.388,13.29,0.036,284.4
2023-07-19T03:10:03,42.805,6.029,-0.02,0.02,-0.015,103.0,102.0,101.0,13.4,1505.2,329.4,-0.7,1.8,2471.377,13.29,0.028,315.0
2023-07-19T03:13:03,42.805,6.029,-0.003,0.008,-0.045,103.0,102.0,101.0,13.3,1505.2,339.4,-0.8,1.9,2471.348,13.29,0.008,339.4
2023-07-19T03:16:03,42.805,6.029,-0.033,0.02,-0.021,103.0,104.0,101.0,13.3,1505.2,330.7,-0.7,1.8,2471.373,13.29,0.038,301.2
2023-07-19T03:19:03,42.805,6.029,-0.027,0.011,-0.018,102.0,101.0,101.0,13.4,1505.2,327.1,-0.8,1.8,2471.365,13.29,0.029,292.2
2023-07-19T03:22:03,42.805,6.029,-0.03,0.015,-0.026,103.0,101.0,101.0,13.3,1505.2,340.2,-0.7,1.8,2471.358,13.29,0.033,296.6
2023-07-19T03:25:03,42.805,6.029,-0.029,0.018,-0.048,102.0,102.0,102.0,13.4,1505.2,332.9,-0.7,1.8,2471.363,13.29,0.034,301.8
2023-07-19T03:28:03,42.805,6.029,-0.022,0.011,-0.044,103.0,102.0,101.0,13.4,1505.2,323.1,-0.8,1.8,2471.364,13.29,0.024,296.6
2023-07-19T03:31:03,42.805,6.029,-0.015,-0.007,-0.05,102.0,101.0,101.0,13.4,1505.2,342.1,-0.8,1.8,2471.343,13.29,0.016,245.0
2023-07-19T03:34:03,42.805,6.029,-0.029,0.025,-0.05,102.0,102.0,101.0,13.3,1505.2,331.4,-0.7,1.8,2471.34,13.29,0.038,310.8
2023-07-19T03:37:03,42.805,6.029,-0.032,0.017,-0.025,103.0,101.0,102.0,13.4,1505.2,341.9,-0.8,1.8,2471.335,13.29,0.036,298.0
2023-07-19T03:40:03,42.805,6.029,-0.008,-0.003,-0.029,102.0,101.0,101.0,13.4,1505.2,332.1,-0.8,1.8,2471.352,13.29,0.008,249.4
2023-07-19T03:43:03,42.805,6.029,-0.032,0.0,-0.02,101.0,102.0,102.0,13.4,1505.2,327.7,-0.8,1.8,2471.329,13.29,0.032,270.0
2023-07-19T03:46:03,42.805,6.029,-0.04,0.009,-0.04,102.0,101.0,100.0,13.4,1505.2,331.2,-0.8,1.8,2471.338,13.29,0.041,282.7
2023-07-19T03:49:03,42.805,6.029,-0.022,0.025,-0.033,102.0,102.0,101.0,13.3,1505.2,347.4,-0.8,1.8,2471.34,13.29,0.033,318.7
2023-07-19T03:52:03,42.805,6.029,-0.007,-0.015,-0.032,103.0,103.0,100.0,13.4,1505.2,325.0,-0.7,1.8,2471.34,13.29,0.016,205.0
2023-07-19T03:55:03,42.805,6.029,-0.027,0.005,-0.016,103.0,101.0,101.0,13.4,1505.2,334.8,-0.7,1.8,2471.344,13.29,0.027,280.5
2023-07-19T03:58:03,42.805,6.029,-0.029,0.019,-0.055,101.0,101.0,101.0,13.4,1505.2,354.4,-0.7,1.8,2471.355,13.29,0.034,303.2
2023-07-19T04:04:03,42.805,6.029,0.001,0.027,-0.013,103.0,101.0,101.0,13.3,1505.2,332.6,-0.8,1.8,2471.387,13.29,0.027,2.1
2023-07-19T04:07:03,42.805,6.029,-0.016,0.014,-0.032,104.0,102.0,103.0,13.4,1505.2,338.4,-0.8,1.9,2471.425,13.29,0.021,311.2
2023-07-19T04:10:03,42.805,6.029,-0.023,-0.01,-0.061,102.0,102.0,101.0,13.4,1505.2,324.3,-0.8,1.8,2471.372,13.29,0.025,246.5
2023-07-19T04:13:03,42.805,6.029,-0.015,0.008,-0.018,101.0,102.0,101.0,13.4,1505.2,337.8,-0.8,1.8,2471.382,13.29,0.017,298.1
2023-07-19T04:16:03,42.805,6.029,-0.03,0.024,-0.037,102.0,103.0,101.0,13.4,1505.2,352.8,-0.7,1.8,2471.391,13.29,0.038,308.7
2023-07-19T04:19:03,42.805,6.029,-0.017,0.002,-0.041,104.0,102.0,101.0,13.4,1505.2,332.5,-0.7,1.8,2471.374,13.29,0.017,276.7
2023-07-19T04:22:03,42.805,6.029,-0.012,0.016,-0.024,104.0,102.0,100.0,13.4,1505.2,336.0,-0.8,1.8,2471.382,13.29,0.02,323.1
2023-07-19T04:25:03,42.805,6.029,-0.005,-0.01,-0.021,102.0,102.0,102.0,13.4,1505.2,345.6,-0.8,1.8,2471.35,13.29,0.011,206.6
2023-07-19T04:28:03,42.805,6.029,-0.002,0.011,-0.055,102.0,103.0,101.0,13.3,1505.2,341.2,-0.8,1.8,2471.387,13.29,0.011,349.7
2023-07-19T04:31:03,42.805,6.029,0.001,0.024,-0.028,102.0,101.0,102.0,13.4,1505.2,339.8,-0.7,1.8,2471.338,13.29,0.024,2.4
2023-07-19T04:34:03,42.805,6.029,-0.011,0.037,-0.018,101.0,102.0,101.0,13.3,1505.2,353.1,-0.8,1.8,2471.411,13.29,0.038,343.4
2023-07-19T04:37:03,42.805,6.029,-0.022,0.012,-0.038,102.0,101.0,102.0,13.4,1505.2,339.7,-0.8,1.8,2471.359,13.29,0.025,298.6
2023-07-19T04:40:03,42.805,6.029,-0.031,0.014,-0.04,104.0,102.0,100.0,13.4,1505.2,343.9,-0.8,1.8,2471.352,13.29,0.034,294.3
2023-07-19T04:43:03,42.805,6.029,-0.039,-0.015,-0.024,101.0,102.0,101.0,13.4,1505.2,328.6,-0.8,1.8,2471.334,13.29,0.041,249.0
2023-07-19T04:46:03,42.805,6.029,-0.01,0.011,-0.017,102.0,102.0,101.0,13.4,1505.2,350.5,-0.7,1.8,2471.352,13.29,0.014,317.7
2023-07-19T04:49:03,42.805,6.029,-0.017,0.013,-0.026,101.0,102.0,102.0,13.3,1505.2,337.5,-0.7,1.8,2471.378,13.29,0.021,307.4
2023-07-19T04:52:03,42.805,6.029,-0.045,0.009,-0.033,103.0,101.0,103.0,13.3,1505.2,345.9,-0.8,1.8,2471.393,13.29,0.045,281.3
2023-07-19T04:55:03,42.805,6.029,-0.013,0.023,-0.014,102.0,102.0,101.0,13.3,1505.2,354.4,-0.7,1.8,2471.389,13.29,0.026,330.5
2023-07-19T04:58:03,42.805,6.029,-0.019,0.004,-0.025,102.0,102.0,101.0,13.4,1505.2,329.9,-0.8,1.8,2471.389,13.29,0.019,281.9
2023-07-19T05:04:03,42.805,6.029,-0.024,0.013,-0.033,102.0,102.0,101.0,13.4,1505.2,321.0,-0.8,1.8,2471.418,13.29,0.027,298.4
2023-07-19T05:07:03,42.805,6.029,-0.05,0.022,-0.055,102.0,102.0,100.0,13.4,1505.2,332.0,-0.8,1.8,2471.452,13.29,0.054,293.7
2023-07-19T05:10:03,42.805,6.029,-0.031,0.027,-0.005,102.0,102.0,101.0,13.4,1505.2,325.4,-0.8,1.8,2471.387,13.29,0.041,311.1
2023-07-19T05:13:03,42.805,6.029,-0.01,0.031,-0.006,102.0,102.0,100.0,13.3,1505.2,350.3,-0.8,1.8,2471.44,13.29,0.032,342.1
2023-07-19T05:16:03,42.805,6.029,-0.029,0.007,-0.028,104.0,100.0,100.0,13.4,1505.2,331.7,-0.8,1.9,2471.414,13.29,0.029,283.6
2023-07-19T05:19:03,42.805,6.029,-0.039,0.022,-0.04,102.0,102.0,101.0,13.4,1505.2,334.6,-0.8,1.8,2471.374,13.29,0.044,299.4
2023-07-19T05:22:03,42.805,6.029,0.001,-0.001,-0.009,102.0,103.0,101.0,13.4,1505.2,341.5,-0.8,1.8,2471.418,13.29,0.001,135.0
2023-07-19T05:25:03,42.805,6.029,-0.022,-0.004,-0.043,103.0,102.0,101.0,13.4,1505.2,353.1,-0.7,1.8,2471.426,13.29,0.022,259.7
2023-07-19T05:28:03,42.805,6.029,-0.028,0.018,-0.013,102.0,100.0,102.0,13.4,1505.2,351.7,-0.8,1.9,2471.423,13.29,0.033,302.7
2023-07-19T05:31:03,42.805,6.029,-0.014,0.001,-0.025,103.0,102.0,101.0,13.4,1505.2,340.5,-0.8,1.8,2471.391,13.29,0.014,274.1
2023-07-19T05:34:03,42.805,6.029,-0.025,0.027,-0.048,102.0,102.0,100.0,13.4,1505.2,344.8,-0.7,1.8,2471.376,13.29,0.036,317.2
2023-07-19T05:37:03,42.805,6.029,-0.038,0.016,-0.023,102.0,101.0,101.0,13.4,1505.2,343.9,-0.8,1.8,2471.401,13.29,0.041,292.8
2023-07-19T05:40:03,42.805,6.029,-0.019,0.012,-0.019,102.0,101.0,101.0,13.4,1505.2,330.5,-0.7,1.8,2471.39,13.29,0.022,302.3
2023-07-19T05:43:03,42.805,6.029,-0.006,0.03,0.027,101.0,103.0,100.0,13.3,1505.2,353.2,-0.8,1.8,2471.407,13.29,0.03,348.7
2023-07-19T05:46:03,42.805,6.029,-0.012,0.0,-0.003,103.0,101.0,101.0,13.4,1505.2,339.3,-0.8,1.9,2471.406,13.29,0.012,270.0
2023-07-19T05:49:03,42.805,6.029,-0.02,0.008,-0.024,102.0,103.0,101.0,13.4,1505.2,350.7,-0.8,1.8,2471.413,13.29,0.021,291.8
2023-07-19T05:52:03,42.805,6.029,-0.019,0.008,-0.04,102.0,103.0,102.0,13.4,1505.2,336.0,-0.7,1.8,2471.381,13.29,0.02,292.8
2023-07-19T05:55:03,42.805,6.029,-0.031,0.004,-0.022,102.0,101.0,100.0,13.3,1505.2,332.1,-0.8,1.8,2471.404,13.29,0.031,277.3
2023-07-19T05:58:03,42.805,6.029,-0.04,0.022,-0.036,101.0,102.0,104.0,13.4,1505.2,331.7,-0.7,1.8,2471.439,13.29,0.045,298.8
2023-07-19T06:04:03,42.805,6.029,-0.023,0.006,0.002,100.0,103.0,102.0,13.4,1505.2,326.0,-0.7,1.8,2471.496,13.29,0.023,284.6
2023-07-19T06:07:03,42.805,6.029,-0.025,0.013,0.002,102.0,103.0,101.0,13.3,1505.2,326.3,-0.8,1.8,2471.445,13.29,0.028,297.5
2023-07-19T06:10:03,42.805,6.029,-0.032,-0.002,-0.048,102.0,102.0,101.0,13.4,1505.2,328.3,-0.8,1.8,2471.48,13.29,0.032,266.4
2023-07-19T06:13:03,42.805,6.029,-0.025,0.018,-0.031,102.0,102.0,101.0,13.3,1505.2,325.4,-0.7,1.8,2471.417,13.29,0.03,305.8
2023-07-19T06:16:03,42.805,6.029,-0.028,0.004,-0.01,105.0,101.0,102.0,13.4,1505.2,326.8,-0.7,1.8,2471.454,13.29,0.028,278.1
2023-07-19T06:19:03,42.805,6.029,-0.033,0.0,-0.046,102.0,102.0,101.0,13.4,1505.2,322.9,-0.7,1.8,2471.452,13.29,0.033,270.0
2023-07-19T06:22:03,42.805,6.029,-0.017,-0.001,-0.009,102.0,102.0,101.0,13.4,1505.2,323.3,-0.8,1.8,2471.42,13.29,0.017,266.6
2023-07-19T06:25:03,42.805,6.029,-0.031,0.001,-0.037,103.0,102.0,102.0,13.3,1505.2,322.7,-0.8,1.8,2471.447,13.29,0.031,271.8
2023-07-19T06:28:03,42.805,6.029,-0.01,0.034,-0.012,103.0,102.0,100.0,13.4,1505.2,333.9,-0.8,1.8,2471.468,13.29,0.035,343.6
2023-07-19T06:31:03,42.805,6.029,-0.01,0.002,-0.04,102.0,102.0,101.0,13.4,1505.2,327.8,-0.8,1.8,2471.399,13.29,0.01,281.3
2023-07-19T06:34:03,42.805,6.029,-0.023,-0.009,-0.02,103.0,101.0,100.0,13.4,1505.2,329.2,-0.8,1.9,2471.429,13.29,0.024,248.6
2023-07-19T06:37:03,42.805,6.029,-0.009,0.0,-0.009,102.0,102.0,101.0,13.4,1505.2,326.9,-0.8,1.8,2471.438,13.29,0.009,270.0
2023-07-19T06:40:03,42.805,6.029,-0.026,-0.004,-0.06,102.0,102.0,101.0,13.3,1505.2,336.1,-0.8,1.8,2471.487,13.29,0.026,261.3
2023-07-19T06:43:03,42.805,6.029,-0.01,0.009,-0.049,102.0,102.0,101.0,13.4,1505.2,340.0,-0.8,1.8,2471.428,13.29,0.013,312.0
2023-07-19T06:46:03,42.805,6.029,-0.007,0.008,-0.015,102.0,101.0,100.0,13.3,1505.2,340.4,-0.7,1.8,2471.437,13.29,0.01,318.8
2023-07-19T06:49:03,42.805,6.029,-0.026,-0.01,-0.05,103.0,101.0,101.0,13.4,1505.2,328.8,-0.8,1.8,2471.445,13.29,0.027,249.0
2023-07-19T06:52:03,42.805,6.029,0.0,0.002,-0.01,102.0,102.0,101.0,13.4,1505.2,322.7,-0.7,1.8,2471.411,13.29,0.002,0.0
2023-07-19T06:55:03,42.805,6.029,0.0,0.012,-0.003,102.0,101.0,101.0,13.4,1505.2,351.0,-0.7,1.8,2471.42,13.29,0.012,0.0
2023-07-19T06:58:03,42.805,6.029,-0.016,-0.016,-0.036,101.0,103.0,101.0,13.3,1505.2,329.9,-0.8,1.8,2471.454,13.29,0.022,225.0
2023-07-19T07:04:03,42.805,6.029,-0.017,0.018,-0.034,102.0,102.0,101.0,13.4,1505.2,324.9,-0.8,1.8,2471.485,13.29,0.024,316.6
2023-07-19T07:07:03,42.805,6.029,-0.015,-0.005,-0.045,102.0,102.0,101.0,13.3,1505.2,322.9,-0.8,1.8,2471.486,13.29,0.015,251.6
2023-07-19T07:10:03,42.805,6.029,-0.013,-0.007,-0.033,101.0,102.0,101.0,13.4,1505.2,333.4,-0.8,1.8,2471.47,13.29,0.014,241.7
2023-07-19T07:13:03,42.805,6.029,-0.005,0.006,-0.001,102.0,101.0,100.0,13.4,1505.2,350.3,-0.8,1.8,2471.511,13.29,0.007,320.2
2023-07-19T07:16:03,42.805,6.029,-0.01,0.006,-0.002,102.0,102.0,101.0,13.3,1505.2,341.5,-0.7,1.9,2471.47,13.29,0.011,301.0
2023-07-19T07:19:03,42.805,6.029,0.006,0.002,-0.027,103.0,103.0,101.0,13.3,1505.2,323.6,-0.8,1.9,2471.46,13.29,0.006,71.6
2023-07-19T07:22:03,42.805,6.029,-0.015,0.003,-0.034,102.0,102.0,102.0,13.4,1505.2,336.8,-0.7,1.8,2471.434,13.29,0.015,281.3
2023-07-19T07:25:03,42.805,6.029,-0.012,0.028,-0.002,102.0,102.0,100.0,13.4,1505.2,348.9,-0.7,1.8,2471.438,13.29,0.03,336.8
2023-07-19T07:28:03,42.805,6.029,-0.024,-0.007,-0.041,102.0,102.0,101.0,13.4,1505.2,332.5,-0.8,1.8,2471.44,13.29,0.025,253.7
2023-07-19T07:31:03,42.805,6.029,-0.006,0.008,-0.039,102.0,102.0,102.0,13.3,1505.2,351.5,-0.8,1.8,2471.431,13.29,0.01,323.1
2023-07-19T07:34:03,42.805,6.029,-0.009,-0.017,-0.022,101.0,103.0,100.0,13.4,1505.2,320.7,-0.7,1.8,2471.446,13.29,0.019,207.9
2023-07-19T07:37:03,42.805,6.029,0.009,-0.001,-0.045,101.0,102.0,101.0,13.3,1505.2,338.8,-0.8,1.8,2471.476,13.29,0.009,96.3
2023-07-19T07:40:03,42.805,6.029,-0.01,-0.012,-0.044,102.0,102.0,101.0,13.3,1505.2,326.0,-0.7,1.8,2471.433,13.29,0.015,219.8
2023-07-19T07:43:03,42.805,6.029,-0.019,0.005,-0.016,104.0,103.0,100.0,13.4,1505.2,342.2,-0.8,1.8,2471.464,13.29,0.019,284.7
2023-07-19T07:46:03,42.805,6.029,-0.019,0.025,-0.017,102.0,102.0,100.0,13.4,1505.2,335.4,-0.7,1.8,2471.43,13.29,0.031,322.8
2023-07-19T07:49:03,42.805,6.029,-0.015,-0.011,-0.04,102.0,102.0,101.0,13.3,1505.2,322.9,-0.8,1.8,2471.456,13.29,0.018,233.7
2023-07-19T07:52:03,42.805,6.029,-0.023,-0.007,-0.045,102.0,102.0,102.0,13.4,1505.2,326.5,-0.8,1.8,2471.457,13.29,0.024,253.1
2023-07-19T07:55:03,42.805,6.029,-0.013,0.008,-0.056,103.0,102.0,101.0,13.4,1505.2,337.5,-0.8,1.8,2471.449,13.29,0.015,301.6
2023-07-19T07:58:03,42.805,6.029,-0.007,-0.005,-0.031,103.0,102.0,101.0,13.4,1505.2,351.5,-0.8,1.8,2471.477,13.29,0.008,234.5
2023-07-19T08:04:03,42.805,6.029,-0.006,0.011,-0.039,102.0,102.0,102.0,13.3,1505.2,325.4,-0.8,1.8,2471.415,13.29,0.012,331.4
2023-07-19T08:07:03,42.805,6.029,-0.002,0.002,-0.025,103.0,104.0,100.0,13.4,1505.2,350.7,-0.7,1.8,2471.482,13.29,0.002,315.0
2023-07-19T08:10:03,42.805,6.029,-0.01,-0.002,-0.009,102.0,102.0,102.0,13.4,1505.2,328.6,-0.8,1.8,2471.504,13.29,0.01,258.7
2023-07-19T08:13:03,42.805,6.029,-0.02,-0.004,-0.006,102.0,102.0,102.0,13.4,1505.2,323.9,-0.8,1.8,2471.484,13.29,0.02,258.7
2023-07-19T08:16:03,42.805,6.029,-0.004,0.027,-0.015,101.0,103.0,101.0,13.3,1505.2,333.4,-0.7,1.8,2471.502,13.29,0.027,351.6
2023-07-19T08:19:03,42.805,6.029,-0.012,0.014,-0.017,102.0,102.0,101.0,13.4,1505.2,351.2,-0.7,1.8,2471.446,13.29,0.018,319.4
2023-07-19T08:22:03,42.805,6.029,-0.017,0.025,-0.023,102.0,102.0,101.0,13.4,1505.2,352.8,-0.8,1.8,2471.507,13.29,0.03,325.8
2023-07-19T08:25:03,42.805,6.029,-0.024,-0.001,-0.007,102.0,103.0,101.0,13.4,1505.2,341.2,-0.7,1.8,2471.431,13.29,0.024,267.6
2023-07-19T08:28:03,42.805,6.029,-0.014,-0.008,-0.055,102.0,103.0,102.0,13.4,1505.2,328.0,-0.8,1.9,2471.421,13.29,0.016,240.3
2023-07-19T08:31:03,42.805,6.029,-0.003,0.007,-0.01,105.0,102.0,101.0,13.3,1505.2,345.1,-0.7,1.8,2471.429,13.29,0.007,336.8
2023-07-19T08:34:03,42.805,6.029,-0.009,0.03,-0.01,103.0,103.0,101.0,13.4,1505.2,334.9,-0.8,1.8,2471.463,13.29,0.031,343.3
2023-07-19T08:37:03,42.805,6.029,0.0,-0.002,-0.039,102.0,103.0,100.0,13.4,1505.2,348.4,-0.8,1.8,2471.455,13.29,0.002,180.0
2023-07-19T08:40:03,42.805,6.029,-0.013,0.001,-0.048,103.0,103.0,101.0,13.4,1505.2,334.4,-0.8,1.8,2471.443,13.29,0.013,274.4
2023-07-19T08:43:03,42.805,6.029,-0.017,0.007,-0.037,101.0,103.0,101.0,13.4,1505.2,347.0,-0.8,1.8,2471.445,13.29,0.018,292.4
2023-07-19T08:46:03,42.805,6.029,-0.016,0.019,0.0,101.0,102.0,101.0,13.3,1505.2,337.6,-0.8,1.8,2471.444,13.29,0.024,319.9
2023-07-19T08:49:03,42.805,6.029,-0.014,-0.013,-0.028,102.0,103.0,101.0,13.4,1505.2,340.3,-0.8,1.9,2471.434,13.29,0.019,227.1
2023-07-19T08:52:03,42.805,6.029,-0.006,-0.007,-0.046,102.0,103.0,101.0,13.4,1505.2,353.1,-0.7,1.8,2471.434,13.29,0.009,220.6
2023-07-19T08:55:03,42.805,6.029,-0.01,0.015,-0.013,103.0,103.0,100.0,13.4,1505.2,341.2,-0.8,1.8,2471.45,13.29,0.018,326.3
2023-07-19T08:58:03,42.805,6.029,-0.01,0.016,-0.018,102.0,103.0,101.0,13.3,1505.2,328.6,-0.8,1.8,2471.477,13.29,0.018,328.0
2023-07-19T09:04:03,42.805,6.029,-0.017,-0.015,-0.052,102.0,103.0,101.0,13.4,1505.2,350.7,-0.8,1.8,2471.46,13.29,0.022,228.6
2023-07-19T09:07:03,42.805,6.029,-0.012,-0.005,-0.03,102.0,102.0,102.0,13.4,1505.2,326.8,-0.8,1.8,2471.462,13.29,0.013,247.4
2023-07-19T09:10:03,42.805,6.029,-0.014,0.019,-0.018,102.0,103.0,101.0,13.3,1505.2,334.4,-0.8,1.8,2471.486,13.29,0.023,323.6
2023-07-19T09:13:03,42.805,6.029,-0.005,0.018,-0.038,102.0,102.0,101.0,13.4,1505.2,335.5,-0.8,1.9,2471.42,13.29,0.018,344.5
2023-07-19T09:16:03,42.805,6.029,-0.021,0.004,-0.013,102.0,103.0,101.0,13.4,1505.2,321.6,-0.8,1.8,2471.45,13.29,0.021,280.8
2023-07-19T09:19:03,42.805,6.029,-0.009,-0.002,-0.005,103.0,101.0,102.0,13.4,1505.2,327.3,-0.8,1.8,2471.404,13.29,0.009,257.5
2023-07-19T09:22:03,42.805,6.029,-0.002,-0.003,-0.006,103.0,102.0,102.0,13.4,1505.2,351.5,-0.8,1.9,2471.436,13.29,0.003,213.7
2023-07-19T09:25:03,42.805,6.029,-0.011,0.028,-0.01,103.0,101.0,101.0,13.4,1505.2,345.0,-0.8,1.8,2471.41,13.29,0.03,338.6
2023-07-19T09:28:03,42.805,6.029,-0.006,0.015,-0.041,103.0,101.0,102.0,13.4,1505.2,333.9,-0.8,1.8,2471.432,13.29,0.016,338.2
2023-07-19T09:31:03,42.805,6.029,-0.006,0.012,0.0,103.0,101.0,101.0,13.4,1505.2,342.9,-0.8,1.8,2471.388,13.29,0.013,333.4
2023-07-19T09:34:03,42.805,6.029,-0.014,0.001,-0.018,101.0,102.0,102.0,13.4,1505.2,322.5,-0.8,1.8,2471.42,13.29,0.014,274.1
2023-07-19T09:37:03,42.805,6.029,0.0,0.005,-0.011,102.0,101.0,102.0,13.3,1505.2,325.7,-0.8,1.8,2471.418,13.29,0.005,0.0
2023-07-19T09:40:03,42.805,6.029,-0.033,0.014,-0.011,102.0,103.0,100.0,13.4,1505.2,333.4,-0.8,1.8,2471.425,13.29,0.035,293.0
2023-07-19T09:43:03,42.805,6.029,-0.009,0.013,-0.012,103.0,102.0,100.0,13.4,1505.2,341.2,-0.8,1.8,2471.452,13.29,0.015,325.3
2023-07-19T09:46:03,42.805,6.029,-0.007,0.002,0.002,103.0,102.0,101.0,13.4,1505.2,352.1,-0.8,1.8,2471.426,13.29,0.007,285.9
2023-07-19T09:49:03,42.805,6.029,-0.035,0.027,-0.037,103.0,102.0,100.0,13.4,1505.2,354.4,-0.8,1.8,2471.407,13.29,0.044,307.7
2023-07-19T09:52:03,42.805,6.029,0.0,0.012,-0.03,102.0,102.0,101.0,13.4,1505.2,334.9,-0.8,1.8,2471.394,13.29,0.012,0.0